Location: B
(0.0000°N, 0.0000°E)
Time: 08:35:08
(UTC+02:00)

Amateur Radio Satellites - All Passes

Search period start: 21 April 2015 08:05
Search period end: 22 April 2015 08:05
Location: B, 0.0000°N, 0.0000°E

Satellite Date Start Highest point End Downlink Frequencies (MHz)
Time Altitude Azimuth
Cosmos 2499 21 Apr 08:07:36 08:14:57 77° 86° (E) 08:22:01 435.465 / 435.565
STRAND 1 21 Apr 08:10:23 08:15:06 38° 78° (ENE) 08:19:50 437.568
AUBIESAT-1 21 Apr 08:13:26 08:17:30 41° 256° (WSW) 08:21:48 437.475
PRISM 21 Apr 08:16:08 08:20:20 70° 79° (ENE) 08:24:30 437.425
CUSAT 1 21 Apr 08:21:34 08:26:14 15° 263° (W) 08:30:04 437.405
DANDE 21 Apr 08:23:57 08:29:53 20° 262° (W) 08:35:14 436.750
CUBESAT XI-V 21 Apr 08:37:19 08:41:38 35° 259° (W) 08:45:51 437.345
CUTE-I 21 Apr 08:46:42 08:51:09 26° 281° (WNW) 08:55:29 437.470
JUGNU 21 Apr 08:52:01 08:55:17 15° 12° (NNE) 08:58:39 437.505
Cubesat XI-IV 21 Apr 08:55:08 08:59:08 21° 281° (W) 09:02:58 437.490
BRITE-PL 21 Apr 09:06:00 09:10:02 22° 101° (ESE) 09:14:25 437.365/2234.400
PCSat 21 Apr 09:08:50 09:13:58 46° 110° (ESE) 09:19:09 145.827
GOMX 1 21 Apr 09:21:26 09:25:09 20° 101° (E) 09:29:11 467.674
CANX-2 21 Apr 09:47:30 09:50:58 25° 100° (E) 09:54:32 2200.000
SEEDS 21 Apr 09:48:49 09:51:35 18° 100° (E) 09:54:32 437.485
STRAND 1 21 Apr 09:51:51 09:54:13 13° 259° (W) 09:56:10 437.568
CUTE 1.7 + AOD 2 21 Apr 09:57:14 10:00:57 31° 101° (E) 10:04:44 437.475
CINEMA 3 21 Apr 10:10:19 10:13:51 20° 100° (E) 10:17:35 145.822/145.860
AAUSAT CUBESAT 2 21 Apr 10:18:03 10:21:40 30° 100° (E) 10:25:21 437.432
HO-68 21 Apr 10:21:17 10:28:26 78° 104° (ESE) 10:35:37 435.675
DOVE 4 21 Apr 10:22:18 10:27:32 68° 101° (E) 10:32:51 437.250
DELFI C3 21 Apr 10:31:04 10:31:20 10° 100° (E) 10:31:55 145.870
SRMSAT 21 Apr 10:39:28 10:43:02 16° 13° (NNE) 10:46:43 437.500
JUGNU 21 Apr 10:39:34 10:44:48 34° 19° (NNE) 10:50:06 437.505
BRITE-PL 21 Apr 10:43:49 10:48:23 27° 280° (W) 10:52:58 437.365/2234.400
Oscar 11 21 Apr 10:44:54 10:48:34 28° 101° (E) 10:52:18 145.826/435.025
CUBEBUG 2 21 Apr 10:44:56 10:48:42 24° 100° (E) 10:52:34 437.445
PCSat 21 Apr 10:55:41 10:57:23 11° 293° (WNW) 10:58:36 145.827
GOMX 1 21 Apr 10:58:29 11:03:06 29° 280° (W) 11:07:43 467.674
COMPASS 1 21 Apr 11:06:10 11:10:04 38° 281° (W) 11:13:56 437.405
Cosmos 2491 21 Apr 11:08:01 11:13:39 20° 84° (E) 11:19:53 435.465 / 435.565
DX 1 21 Apr 11:10:25 11:13:01 16° 101° (E) 11:15:52 434.975-435.025
HUMSAT D 21 Apr 11:13:15 11:14:37 12° 99° (E) 11:16:18 437.325/437.525
UWE-3 21 Apr 11:21:29 11:26:05 60° 101° (E) 11:30:39 435.000/436.395/437.385
SEEDS 21 Apr 11:24:26 11:27:17 17° 280° (W) 11:29:57 437.485
CANX-2 21 Apr 11:24:56 11:26:48 12° 280° (W) 11:28:23 2200.000
O/OREOS (USA 219) 21 Apr 11:33:56 11:38:21 68° 76° (ENE) 11:42:47 437.305
50 SAT 21 Apr 11:38:20 11:40:19 14° 100° (E) 11:42:32 437.505
FUNcube-1 21 Apr 11:45:12 11:49:46 86° 282° (WNW) 11:54:17 145.935
YUBILEINY 21 Apr 11:46:04 11:54:01 40° 95° (E) 12:02:08 435.215
CINEMA 3 21 Apr 11:46:51 11:50:54 24° 281° (W) 11:54:49 145.822/145.860
POLYITAN 1 21 Apr 11:49:05 11:50:40 12° 80° (E) 11:52:33 437.675
SO-50 21 Apr 11:50:01 11:52:22 15° 114° (ESE) 11:54:59 436.795
TIGRISAT 21 Apr 11:50:03 11:53:54 33° 79° (ENE) 11:57:52 435.000
ISS 21 Apr 11:51:47 11:54:15 20° 127° (SE) 11:56:46 145.825
UNISAT 6 21 Apr 11:51:48 11:55:46 36° 79° (ENE) 11:59:50 437.425
VELOX 1 21 Apr 11:55:44 11:59:22 26° 101° (E) 12:03:07 145.980
DUCHIFAT 1 21 Apr 11:56:00 11:58:18 15° 80° (E) 12:00:50 145.980
UKube-1 21 Apr 11:59:19 12:03:38 79° 102° (ESE) 12:07:59 .
DELFI C3 21 Apr 12:02:59 12:06:23 26° 280° (W) 12:09:43 145.870
ZACube-1 21 Apr 12:08:41 12:12:58 39° 281° (W) 12:17:11 437.345
QB50P1 21 Apr 12:09:00 12:12:23 24° 79° (E) 12:15:51 145.935-145.965
AISAT 21 Apr 12:10:53 12:15:07 44° 102° (ESE) 12:19:25 437.250
BUGSAT 1 21 Apr 12:13:52 12:16:28 17° 80° (E) 12:19:14 437.445
CUBEBUG 1 21 Apr 12:17:01 12:20:04 19° 101° (E) 12:23:18 437.445
CUBEBUG 2 21 Apr 12:22:06 12:25:15 17° 280° (W) 12:28:10 437.445
Oscar 11 21 Apr 12:23:01 12:24:38 11° 280° (W) 12:25:56 145.826/435.025
SRMSAT 21 Apr 12:27:16 12:32:42 37° 19° (NNE) 12:38:12 437.500
JUGNU 21 Apr 12:28:02 12:33:54 87° 202° (SSW) 12:39:50 437.505
ESTCUBE 1 21 Apr 12:31:41 12:35:47 37° 101° (ESE) 12:39:57 437.505/2401.250
QB50P2 21 Apr 12:32:24 12:36:32 58° 79° (E) 12:40:41 145.880/145.840
ANTELSAT 21 Apr 12:33:21 12:37:34 53° 259° (WSW) 12:41:52 437.575/2403.000
DX 1 21 Apr 12:45:47 12:49:09 21° 281° (W) 12:52:23 434.975-435.025
HUMSAT D 21 Apr 12:46:34 12:50:17 27° 281° (W) 12:53:53 437.325/437.525
NANOSAT C BR1 21 Apr 12:54:14 12:58:25 67° 259° (W) 13:02:33 145.865
POPSAT HIP 1 21 Apr 12:55:00 12:59:11 65° 259° (WSW) 13:03:19 437.405
Cosmos 2491 21 Apr 13:01:58 13:10:28 51° 266° (W) 13:18:52 435.465 / 435.565
50 SAT 21 Apr 13:12:03 13:15:03 19° 280° (W) 13:17:53 437.505
POLYITAN 1 21 Apr 13:23:00 13:26:30 24° 259° (W) 13:29:52 437.675
SO-50 21 Apr 13:29:04 13:32:46 25° 294° (WNW) 13:36:25 436.795
ISS 21 Apr 13:29:18 13:30:31 11° 308° (NW) 13:31:33 145.825
AIST 1 21 Apr 13:29:25 13:31:59 16° 85° (E) 13:34:48
DUCHIFAT 1 21 Apr 13:30:52 13:34:02 20° 259° (W) 13:37:03 145.980
VELOX 1 21 Apr 13:33:25 13:35:50 14° 280° (W) 13:37:58 145.980
YUBILEINY 21 Apr 13:43:35 13:50:44 26° 275° (W) 13:57:29 435.215
TISAT 1 21 Apr 13:46:02 13:50:07 48° 101° (ESE) 13:54:16 437.305
QB50P1 21 Apr 13:46:15 13:48:09 12° 260° (W) 13:49:45 145.935-145.965
BUGSAT 1 21 Apr 13:49:08 13:51:50 16° 259° (W) 13:54:20 437.445
Cosmos 2504 21 Apr 13:49:47 13:54:59 19° 95° (E) 14:00:56 435.465 / 435.565
CUBEBUG 1 21 Apr 13:53:15 13:56:19 18° 280° (W) 13:59:13 437.445
SPROUT 21 Apr 13:56:37 14:00:57 86° 281° (WNW) 14:05:18 437.525
RS-15 21 Apr 14:05:36 14:14:34 30° 115° (ESE) 14:23:49 29.354- 29.394
SRMSAT 21 Apr 14:16:00 14:21:58 81° 202° (SSW) 14:28:00 437.500
JUGNU 21 Apr 14:17:50 14:23:03 32° 198° (SSW) 14:28:16 437.505
ITUPSAT 1 21 Apr 14:38:10 14:41:47 23° 101° (E) 14:45:34 437.325
AIST 1 21 Apr 15:06:35 15:09:32 17° 264° (W) 15:12:20
BEESAT 21 Apr 15:11:16 15:15:58 66° 102° (ESE) 15:20:42 436.000
SWISSCUBE 21 Apr 15:12:52 15:17:35 78° 102° (ESE) 15:22:22 437.505
BEESAT 2 21 Apr 15:15:10 15:17:52 18° 66° (ENE) 15:20:42 435.950
BEESAT 3 21 Apr 15:19:44 15:23:05 27° 67° (ENE) 15:26:30 437.485
Oscar 19 21 Apr 15:29:41 15:34:41 53° 258° (WSW) 15:39:39 437.125/150
Cosmos 2504 21 Apr 15:40:04 15:48:17 54° 274° (W) 15:56:47 435.465 / 435.565
AIST 2 21 Apr 15:46:26 15:47:02 10° 65° (ENE) 15:47:58 435.215
ITAMSAT 1 21 Apr 15:52:56 15:58:07 65° 78° (ENE) 16:03:15 435.822/435.867
Gurwin Techsat 1B 21 Apr 15:53:10 15:58:20 52° 78° (ENE) 16:03:30 435.225
STARS 21 Apr 16:00:15 16:03:10 18° 101° (E) 16:06:17 437.465
VERMONT LUNAR 21 Apr 16:03:20 16:06:31 40° 137° (SE) 16:09:42 437.305
SRMSAT 21 Apr 16:06:06 16:11:20 31° 198° (SSW) 16:16:33 437.500
JUGNU 21 Apr 16:09:21 16:12:39 15° 191° (SSW) 16:15:53 437.505
ITUPSAT 1 21 Apr 16:16:14 16:19:34 18° 281° (W) 16:22:42 437.325
RS-15 21 Apr 16:16:27 16:26:52 45° 293° (WNW) 16:36:55 29.354- 29.394
KKS-1 21 Apr 16:28:16 16:32:45 85° 100° (E) 16:37:16 437.445
BEESAT 2 21 Apr 16:53:22 16:55:52 15° 246° (WSW) 16:58:09 435.950
PHONESAT 2.4 21 Apr 17:19:15 17:22:48 72° 136° (SE) 17:26:22 2401.200-2431.200
JAS-2 21 Apr 17:19:58 17:27:00 53° 77° (ENE) 17:34:34 435.910
AO-7 21 Apr 17:21:02 17:29:04 55° 75° (ENE) 17:37:07 29.400- 29.500
AIST 2 21 Apr 17:22:00 17:25:33 28° 247° (WSW) 17:29:01 435.215
HORYU 2 21 Apr 17:24:45 17:29:12 74° 258° (WSW) 17:33:38 437.375
STARS 21 Apr 17:36:12 17:39:30 20° 281° (W) 17:42:40 437.465
VERMONT LUNAR 21 Apr 17:43:03 17:44:01 11° 320° (NW) 17:44:49 437.305
MOZHAYETS 4 21 Apr 17:56:00 18:00:12 38° 101° (E) 18:04:27
SRMSAT 21 Apr 17:57:54 18:01:09 15° 191° (S) 18:04:18 437.500
GONETS M04 21 Apr 18:03:33 18:12:14 76° 94° (E) 18:20:58
JAS-2 21 Apr 19:07:04 19:12:03 19° 261° (W) 19:16:45 435.910
AO-7 21 Apr 19:16:05 19:21:46 19° 256° (WSW) 19:26:51 29.400- 29.500
CUBESAT XI-V 21 Apr 19:19:34 19:22:46 19° 101° (E) 19:26:10 437.345
CUSAT 1 21 Apr 19:24:56 19:26:35 15° 278° (W) 19:28:10 437.405
M-CUBED/EXP-1 PRIME 21 Apr 19:29:36 19:33:13 45° 104° (ESE) 19:36:36 437.505
DANDE 21 Apr 19:32:15 19:34:14 19° 276° (W) 19:36:09 436.750
CUTE-I 21 Apr 19:45:34 19:50:50 59° 78° (ENE) 19:56:05 437.470
JUGNU 21 Apr 19:50:33 19:52:54 12° 172° (S) 19:55:19 437.505
Cubesat XI-IV 21 Apr 19:53:35 19:58:57 75° 78° (ENE) 20:04:18 437.490
GONETS M04 21 Apr 20:06:43 20:09:15 11° 277° (W) 20:10:41
Cosmos 2499 21 Apr 20:15:20 20:23:55 85° 273° (W) 20:32:48 435.465 / 435.565
AUBIESAT-1 21 Apr 20:16:43 20:20:07 32° 286° (WNW) 20:23:18 437.475
PRISM 21 Apr 20:20:00 20:24:04 79° 102° (ESE) 20:28:11 437.425
STRAND 1 21 Apr 20:42:35 20:47:41 85° 282° (WNW) 20:52:50 437.568
CUBESAT XI-V 21 Apr 20:56:40 21:00:05 20° 280° (W) 21:03:22 437.345
BRITE-PL 21 Apr 21:33:28 21:37:30 37° 80° (E) 21:41:22 437.365/2234.400
JUGNU 21 Apr 21:37:58 21:42:42 24° 164° (SSE) 21:47:30 437.505
SRMSAT 21 Apr 21:39:10 21:41:44 13° 171° (S) 21:44:23 437.500
PCSat 21 Apr 21:44:55 21:50:11 55° 250° (WSW) 21:55:28 145.827
GOMX 1 21 Apr 21:45:39 21:49:19 29° 80° (E) 21:52:57 467.674
CANX-2 21 Apr 21:54:06 21:57:53 32° 79° (E) 22:01:43 2200.000
SEEDS 21 Apr 21:54:18 21:57:32 22° 80° (E) 22:00:54 437.485
CUTE 1.7 + AOD 2 21 Apr 22:03:48 22:07:46 39° 79° (E) 22:11:47 437.475
HO-68 21 Apr 22:12:56 22:20:02 66° 76° (ENE) 22:27:09 435.675
AAUSAT CUBESAT 2 21 Apr 22:22:25 22:26:15 35° 79° (E) 22:30:07 437.432
CINEMA 3 21 Apr 22:27:01 22:30:28 26° 79° (E) 22:34:02 145.822/145.860
DELFI C3 21 Apr 22:31:22 22:32:17 11° 81° (E) 22:33:31 145.870
DOVE 4 21 Apr 22:44:34 22:48:41 60° 259° (W) 22:52:45 437.250
ZACube-1 21 Apr 22:45:39 22:46:51 11° 80° (E) 22:48:22 437.345
Oscar 11 21 Apr 22:53:31 22:57:31 37° 79° (E) 23:01:33 145.826/435.025
CUBEBUG 2 21 Apr 22:57:40 23:01:21 32° 79° (E) 23:05:09 437.445
COMPASS 1 21 Apr 23:11:17 23:15:07 33° 259° (W) 23:18:53 437.405
ANTELSAT 21 Apr 23:13:56 23:14:46 11° 99° (E) 23:16:00 437.575/2403.000
HUMSAT D 21 Apr 23:18:20 23:20:14 13° 80° (E) 23:22:24 437.325/437.525
DX 1 21 Apr 23:19:45 23:23:03 22° 79° (E) 23:26:27 434.975-435.025
ISS 21 Apr 23:25:50 23:27:11 12° 52° (NE) 23:28:41 145.825
JUGNU 21 Apr 23:26:05 23:32:00 61° 159° (SSE) 23:37:55 437.505
SRMSAT 21 Apr 23:26:48 23:31:40 26° 163° (SSE) 23:36:34 437.500
SEEDS 21 Apr 23:30:49 23:33:14 14° 260° (W) 23:35:24 437.485
UWE-3 21 Apr 23:33:19 23:37:29 86° 80° (E) 23:41:43 435.000/436.395/437.385
50 SAT 21 Apr 23:37:09 23:38:51 13° 80° (E) 23:40:47 437.505
Cosmos 2491 21 Apr 23:39:45 23:47:39 41° 95° (E) 23:55:43 435.465 / 435.565
O/OREOS (USA 219) 21 Apr 23:44:49 23:49:24 68° 285° (WNW) 23:53:56 437.305
POLYITAN 1 21 Apr 23:55:06 23:57:41 16° 100° (E) 00:00:30 437.675
FUNcube-1 21 Apr 23:55:32 23:59:39 60° 259° (W) 00:03:48 145.935
SO-50 22 Apr 00:01:33 00:05:43 30° 67° (ENE) 00:09:53 436.795
DUCHIFAT 1 22 Apr 00:01:37 00:04:35 19° 100° (E) 00:07:43 145.980
TIGRISAT 22 Apr 00:03:01 00:07:32 54° 101° (E) 00:12:00 435.000
DELFI C3 22 Apr 00:03:53 00:07:20 26° 259° (W) 00:10:42 145.870
HO-68 22 Apr 00:04:44 00:07:43 12° 258° (WSW) 00:10:01 435.675
UNISAT 6 22 Apr 00:05:06 00:09:40 60° 101° (E) 00:14:10 437.425
CINEMA 3 22 Apr 00:06:39 00:07:37 10° 261° (W) 00:08:16 145.822/145.860
VELOX 1 22 Apr 00:07:37 00:11:41 37° 79° (E) 00:15:46 145.980
UKube-1 22 Apr 00:08:29 00:12:49 76° 257° (WSW) 00:17:07 .
QB50P1 22 Apr 00:15:15 00:19:01 31° 101° (E) 00:22:52 145.935-145.965
BUGSAT 1 22 Apr 00:16:57 00:19:59 20° 101° (E) 00:23:13 437.445
YUBILEINY 22 Apr 00:18:56 00:27:36 76° 86° (E) 00:36:18 435.215
ZACube-1 22 Apr 00:19:36 00:23:07 26° 260° (W) 00:26:36 437.345
AISAT 22 Apr 00:23:16 00:27:40 67° 79° (ENE) 00:32:02 437.250
CUBEBUG 1 22 Apr 00:27:07 00:30:45 26° 79° (E) 00:34:25 437.445
QB50P2 22 Apr 00:39:05 00:43:22 75° 102° (ESE) 00:47:41 145.880/145.840
ESTCUBE 1 22 Apr 00:45:51 00:50:20 60° 78° (ENE) 00:54:48 437.505/2401.250
ANTELSAT 22 Apr 00:47:15 00:51:30 35° 281° (W) 00:55:38 437.575/2403.000
HUMSAT D 22 Apr 00:52:38 00:55:53 22° 260° (W) 00:59:02 437.325/437.525
DX 1 22 Apr 00:56:31 00:59:10 15° 259° (W) 01:01:36 434.975-435.025
NANOSAT C BR1 22 Apr 01:00:38 01:04:49 54° 281° (WNW) 01:09:01 145.865
ISS 22 Apr 01:01:04 01:03:27 18° 233° (SW) 01:05:45 145.825
POPSAT HIP 1 22 Apr 01:01:41 01:05:52 52° 281° (W) 01:10:03 437.405
50 SAT 22 Apr 01:10:35 01:13:34 20° 260° (W) 01:16:26 437.505
SRMSAT 22 Apr 01:15:09 01:21:05 66° 159° (SSE) 01:26:59 437.500
JUGNU 22 Apr 01:15:19 01:21:06 49° 339° (NNW) 01:26:51 437.505
POLYITAN 1 22 Apr 01:30:13 01:33:29 20° 280° (W) 01:36:37 437.675
AIST 1 22 Apr 01:35:35 01:39:04 24° 95° (E) 01:42:37
DUCHIFAT 1 22 Apr 01:37:24 01:40:18 17° 280° (W) 01:43:00 145.980
Cosmos 2491 22 Apr 01:37:30 01:44:25 25° 275° (W) 01:50:53 435.465 / 435.565
SO-50 22 Apr 01:43:23 01:46:08 15° 246° (WSW) 01:48:35 436.795
RS-15 22 Apr 01:46:50 01:55:51 27° 66° (ENE) 02:05:44 29.354- 29.394
TISAT 1 22 Apr 01:52:11 01:56:19 59° 79° (ENE) 02:00:26 437.305
BUGSAT 1 22 Apr 01:52:45 01:55:22 15° 280° (W) 01:57:46 437.445
QB50P1 22 Apr 01:54:14 01:54:48 10° 280° (W) 01:55:00 145.935-145.965
Cosmos 2504 22 Apr 02:02:11 02:07:29 22° 83° (E) 02:12:59 435.465 / 435.565
CUBEBUG 1 22 Apr 02:04:57 02:06:59 13° 260° (W) 02:08:44 437.445
SPROUT 22 Apr 02:05:04 02:09:18 64° 259° (WSW) 02:13:31 437.525
YUBILEINY 22 Apr 02:22:14 02:24:35 11° 263° (W) 02:25:49 435.215
Oscar 19 22 Apr 02:25:12 02:29:14 24° 101° (E) 02:33:27 437.125/150
ITUPSAT 1 22 Apr 02:59:50 03:04:25 45° 79° (ENE) 03:09:00 437.325
SRMSAT 22 Apr 03:04:39 03:10:19 45° 340° (NNW) 03:15:57 437.500
JUGNU 22 Apr 03:06:08 03:10:28 20° 345° (NNW) 03:14:43 437.505
BEESAT 2 22 Apr 03:10:15 03:13:13 20° 113° (ESE) 03:16:19 435.950
BEESAT 3 22 Apr 03:14:14 03:17:43 30° 113° (ESE) 03:21:18 437.485
AIST 1 22 Apr 03:14:36 03:16:37 12° 276° (W) 03:18:19
BEESAT 22 Apr 03:33:25 03:38:11 62° 258° (WSW) 03:42:55 436.000
SWISSCUBE 22 Apr 03:35:14 03:39:55 53° 258° (WSW) 03:44:35 437.505
VERMONT LUNAR 22 Apr 03:38:07 03:41:00 28° 42° (NE) 03:43:54 437.305
AIST 2 22 Apr 03:43:52 03:45:53 14° 114° (ESE) 03:48:08 435.215
Cosmos 2504 22 Apr 03:54:03 04:00:51 36° 266° (W) 04:07:14 435.465 / 435.565
RS-15 22 Apr 03:56:35 04:08:22 57° 248° (WSW) 04:20:15 29.354- 29.394
Oscar 19 22 Apr 04:04:35 04:08:29 21° 281° (W) 04:12:11 437.125/150
STARS 22 Apr 04:11:06 04:14:38 25° 79° (E) 04:18:16 437.465
ITAMSAT 1 22 Apr 04:28:05 04:33:03 47° 282° (WNW) 04:38:02 435.822/435.867
Gurwin Techsat 1B 22 Apr 04:31:38 04:36:48 53° 282° (WNW) 04:41:58 435.225
KKS-1 22 Apr 04:41:13 04:45:36 63° 258° (WSW) 04:49:58 437.445
GONETS M04 22 Apr 04:44:25 04:49:06 17° 84° (E) 04:54:32
BEESAT 2 22 Apr 04:48:56 04:51:13 14° 294° (WNW) 04:53:19 435.950
SRMSAT 22 Apr 04:55:45 04:59:52 19° 345° (NNW) 05:03:55 437.500
JAS-2 22 Apr 04:56:37 05:00:37 21° 99° (E) 05:04:40 435.910
JUGNU 22 Apr 04:58:52 05:00:20 11° 353° (N) 05:01:45 437.505
PHONESAT 2.4 22 Apr 04:59:09 05:02:37 58° 44° (NE) 05:06:03 2401.200-2431.200
VERMONT LUNAR 22 Apr 05:16:33 05:18:27 14° 221° (SW) 05:20:15 437.305
AIST 2 22 Apr 05:20:58 05:24:21 23° 293° (WNW) 05:27:39 435.215
HORYU 2 22 Apr 05:37:48 05:42:07 47° 281° (WNW) 05:46:24 437.375
AO-7 22 Apr 05:47:00 05:55:21 87° 105° (ESE) 06:03:45 29.400- 29.500
STARS 22 Apr 05:48:42 05:50:59 13° 260° (W) 05:53:00 437.465
MOZHAYETS 4 22 Apr 06:12:34 06:17:11 67° 78° (ENE) 06:21:48
CUSAT 1 22 Apr 06:19:58 06:28:07 62° 84° (E) 06:36:02 437.405
DANDE 22 Apr 06:30:18 06:38:30 60° 85° (E) 06:46:48 436.750
GONETS M04 22 Apr 06:37:19 06:45:57 58° 266° (W) 06:54:30
JAS-2 22 Apr 06:41:14 06:45:42 23° 283° (WNW) 06:49:45 435.910
SRMSAT 22 Apr 06:48:48 06:49:56 10° 354° (N) 06:51:01 437.500
CUTE-I 22 Apr 06:49:14 06:50:10 11° 101° (E) 06:51:35 437.470
Cubesat XI-IV 22 Apr 06:55:57 06:58:29 14° 101° (E) 07:01:24 437.490
M-CUBED/EXP-1 PRIME 22 Apr 07:30:20 07:34:34 52° 74° (ENE) 07:39:06 437.505
CUBESAT XI-V 22 Apr 07:37:18 07:41:31 34° 79° (E) 07:45:46 437.345
STRAND 1 22 Apr 07:38:48 07:41:24 15° 79° (E) 07:44:20 437.568
